Celoron, NY

10:51 PM EST on February 12, 2016 (GMT -0500)
Chautauqua County-Jamestown

Weather History for KJHW - May, 2013

Change the Weather History Date:

Saturday, May 11, 2013

  Actual Average Record
Temperature  
Mean Temperature 50 °F -  
Max Temperature 57 °F 68 °F 86 °F (1993)
Min Temperature 42 °F 38 °F 24 °F (1987)
Degree Days  
Heating Degree Days 16    
Moisture  
Dew Point 44 °F    
Average Humidity 88    
Maximum Humidity 94    
Minimum Humidity 81    
Precipitation  
Precipitation 0.13 in - - ()
Sea Level Pressure  
Sea Level Pressure 29.78 in    
Wind  
Wind Speed 9 mph (WSW)    
Max Wind Speed 17 mph    
Max Gust Speed 22 mph    
Visibility 9 miles    
Events      
Averages and records for this station are not official NWS values.
T = Trace of Precipitation, MM = Missing Value Source: NWS Daily Summary

Daily Weather History Graph

Daily Weather History Graph

Search for Another Location

Airport or City:

Trip Planner

Search our weather history database for the weather conditions in past years. The results will help you decide how hot, cold, wet, or windy it might be!

Date:

Astronomy

May. 11, 2013 Rise Set
Actual Time 6:00 AM EDT 8:27 PM EDT
Civil Twilight 5:28 AM EDT 8:59 PM EDT
Nautical Twilight 4:49 AM EDT 9:38 PM EDT
Astronomical Twilight 4:05 AM EDT 10:22 PM EDT
Moon 7:06 AM EDT (5/11) 10:06 PM EDT (5/11)
Length of Visible Light 15h 30m
Length of Day
14h 27m
Waxing Crescent, 3% of the Moon is Illuminated
May 11
Waxing Crescent
May 18
First Quarter
May 25
Full
May 31
Last Quarter
Jun 8
New

Hourly Weather History & Observations

Time (EDT) Temp. Windchill Dew Point Humidity Pressure Visibility Wind Dir Wind Speed Gust Speed Precip Events Conditions
12:15 AM 55.4 °F - 53.6 °F 94% 29.77 in 10.0 mi SSW 5.8 mph - N/A   Overcast
12:35 AM 55.4 °F - 53.6 °F 94% 29.77 in 10.0 mi SSW 5.8 mph - N/A   Overcast
12:55 AM 57.2 °F - 55.4 °F 94% 29.76 in 10.0 mi SSW 6.9 mph - N/A   Overcast
1:15 AM 57.2 °F - 55.4 °F 94% 29.75 in 10.0 mi SSW 4.6 mph - N/A   Overcast
1:35 AM 57.2 °F - 55.4 °F 94% 29.75 in 10.0 mi SW 5.8 mph - N/A   Overcast
1:55 AM 57.2 °F - 55.4 °F 94% 29.75 in 10.0 mi SSW 5.8 mph - N/A   Overcast
2:15 AM 57.2 °F - 55.4 °F 94% 29.74 in 10.0 mi SSW 6.9 mph - N/A   Overcast
2:35 AM 57.2 °F - 55.4 °F 94% 29.73 in 5.0 mi SSW 6.9 mph - N/A   Overcast
2:55 AM 57.2 °F - 55.4 °F 94% 29.73 in 4.0 mi SSW 6.9 mph - 0.02 in   Overcast
3:15 AM 55.4 °F - 51.8 °F 88% 29.74 in 5.0 mi West 9.2 mph - 0.11 in   Overcast
3:35 AM 53.6 °F - 51.8 °F 94% 29.74 in 8.0 mi WSW 8.1 mph - 0.11 in   Overcast
3:55 AM 53.6 °F - 51.8 °F 94% 29.74 in 5.0 mi West 11.5 mph 17.3 mph 0.11 in   Overcast
4:15 AM 51.8 °F - 50.0 °F 94% 29.74 in 7.0 mi West 15.0 mph 20.7 mph N/A   Overcast
4:35 AM 51.8 °F - 48.2 °F 88% 29.74 in 10.0 mi West 11.5 mph - N/A   Overcast
4:55 AM 48.2 °F - 46.4 °F 93% 29.75 in 10.0 mi West 17.3 mph - N/A   Overcast
5:15 AM 48.2 °F - 44.6 °F 87% 29.75 in 10.0 mi West 12.7 mph - N/A   Overcast
5:35 AM 48.2 °F - 44.6 °F 87% 29.76 in 10.0 mi West 11.5 mph 19.6 mph N/A   Overcast
5:55 AM 46.4 °F 40.1 °F 44.6 °F 93% 29.77 in 9.0 mi West 15.0 mph 21.9 mph N/A   Overcast
6:15 AM 46.4 °F 40.1 °F 42.8 °F 87% 29.78 in 6.0 mi WSW 15.0 mph 18.4 mph N/A   Overcast
6:35 AM 44.6 °F 39.2 °F 42.8 °F 93% 29.79 in 4.0 mi West 10.4 mph - N/A   Overcast
6:55 AM 44.6 °F 38.1 °F 41.0 °F 87% 29.79 in 4.0 mi West 13.8 mph - N/A   Overcast
7:15 AM 42.8 °F 37.5 °F 41.0 °F 93% 29.79 in 3.0 mi West 9.2 mph - N/A   Overcast
7:35 AM 42.8 °F 38.6 °F 39.2 °F 87% 29.80 in 5.0 mi West 6.9 mph - N/A   Overcast
7:55 AM 42.8 °F 37.0 °F 39.2 °F 87% 29.80 in 2.0 mi West 10.4 mph - N/A   Overcast
8:15 AM 42.8 °F 36.2 °F 39.2 °F 87% 29.80 in 4.0 mi West 12.7 mph 16.1 mph N/A   Overcast
8:35 AM 42.8 °F 37.0 °F 41.0 °F 93% 29.79 in 4.0 mi West 10.4 mph - N/A   Overcast
8:55 AM 42.8 °F 36.6 °F 41.0 °F 93% 29.80 in 2.0 mi West 11.5 mph - N/A   Overcast
9:15 AM 42.8 °F 36.6 °F 39.2 °F 87% 29.80 in 4.0 mi WSW 11.5 mph - N/A   Overcast
9:35 AM 42.8 °F 37.0 °F 39.2 °F 87% 29.81 in 10.0 mi West 10.4 mph - N/A   Overcast
9:55 AM 42.8 °F 38.0 °F 39.2 °F 87% 29.80 in 9.0 mi WSW 8.1 mph - N/A   Overcast
10:15 AM 42.8 °F 38.0 °F 41.0 °F 93% 29.81 in 10.0 mi WSW 8.1 mph - N/A   Overcast
10:35 AM 42.8 °F 38.6 °F 41.0 °F 93% 29.81 in 10.0 mi WSW 6.9 mph - N/A   Overcast
10:55 AM 44.6 °F 40.2 °F 41.0 °F 87% 29.80 in 10.0 mi WSW 8.1 mph - N/A   Overcast
11:15 AM 44.6 °F 39.7 °F 41.0 °F 87% 29.80 in 10.0 mi West 9.2 mph - N/A   Overcast
11:35 AM 44.6 °F 39.7 °F 42.8 °F 93% 29.81 in 10.0 mi WSW 9.2 mph - N/A   Overcast
11:55 AM 44.6 °F 41.4 °F 42.8 °F 93% 29.81 in 10.0 mi WNW 5.8 mph - N/A   Overcast
12:15 PM 44.6 °F 42.2 °F 42.8 °F 93% 29.81 in 10.0 mi SW 4.6 mph - N/A   Overcast
12:35 PM 44.6 °F 40.2 °F 42.8 °F 93% 29.81 in 10.0 mi WSW 8.1 mph - N/A   Overcast
12:55 PM 46.4 °F 42.4 °F 42.8 °F 87% 29.80 in 10.0 mi West 8.1 mph - N/A   Overcast
1:15 PM 46.4 °F 42.4 °F 42.8 °F 87% 29.80 in 10.0 mi West 8.1 mph - N/A   Overcast
1:35 PM 46.4 °F 42.4 °F 42.8 °F 87% 29.80 in 10.0 mi West 8.1 mph - N/A   Overcast
1:55 PM 48.2 °F - 42.8 °F 82% 29.80 in 10.0 mi WSW 9.2 mph - N/A   Overcast
2:15 PM 48.2 °F - 42.8 °F 82% 29.81 in 10.0 mi SW 9.2 mph - N/A   Overcast
2:35 PM 48.2 °F - 42.8 °F 82% 29.81 in 10.0 mi WSW 6.9 mph - N/A   Overcast
2:55 PM 48.2 °F - 44.6 °F 87% 29.81 in 10.0 mi WSW 9.2 mph - N/A   Overcast
3:15 PM 48.2 °F - 42.8 °F 82% 29.80 in 10.0 mi SW 8.1 mph - N/A   Overcast
3:35 PM 48.2 °F - 42.8 °F 82% 29.80 in 10.0 mi WSW 8.1 mph - N/A   Overcast
3:55 PM 48.2 °F - 42.8 °F 82% 29.80 in 10.0 mi WSW 10.4 mph - N/A   Overcast
4:15 PM 48.2 °F - 42.8 °F 82% 29.80 in 10.0 mi SW 9.2 mph - N/A   Overcast
4:35 PM 48.2 °F - 42.8 °F 82% 29.79 in 10.0 mi WSW 11.5 mph - N/A   Overcast
5:15 PM 48.2 °F - 42.8 °F 82% 29.80 in 10.0 mi WSW 9.2 mph - N/A   Overcast
5:35 PM 48.2 °F - 42.8 °F 82% 29.79 in 10.0 mi SW 9.2 mph - N/A   Overcast
5:55 PM 48.2 °F - 42.8 °F 82% 29.79 in 10.0 mi SW 8.1 mph - N/A   Overcast
6:15 PM 48.2 °F - 42.8 °F 82% 29.79 in 10.0 mi WSW 13.8 mph - N/A   Overcast
6:35 PM 48.2 °F - 42.8 °F 82% 29.80 in 10.0 mi WSW 12.7 mph - N/A   Overcast
6:55 PM 48.2 °F - 42.8 °F 82% 29.79 in 10.0 mi WSW 12.7 mph - N/A   Overcast
7:15 PM 48.2 °F - 42.8 °F 82% 29.79 in 10.0 mi SW 11.5 mph - N/A   Overcast
7:35 PM 46.4 °F 41.1 °F 42.8 °F 87% 29.80 in 10.0 mi WSW 11.5 mph - N/A   Overcast
7:55 PM 46.4 °F 41.9 °F 42.8 °F 87% 29.80 in 10.0 mi WSW 9.2 mph - N/A   Overcast
8:15 PM 46.4 °F 41.1 °F 42.8 °F 87% 29.80 in 10.0 mi WSW 11.5 mph - N/A   Overcast
8:35 PM 46.4 °F 41.5 °F 41.0 °F 81% 29.80 in 10.0 mi WSW 10.4 mph - N/A   Overcast
8:55 PM 46.4 °F 43.5 °F 41.0 °F 81% 29.80 in 10.0 mi SW 5.8 mph - N/A   Overcast
9:15 PM 46.4 °F 43.5 °F 42.8 °F 87% 29.80 in 10.0 mi SSW 5.8 mph - N/A   Overcast
9:35 PM 46.4 °F 43.5 °F 42.8 °F 87% 29.80 in 10.0 mi SSW 5.8 mph - N/A   Overcast
9:55 PM 46.4 °F 43.5 °F 42.8 °F 87% 29.80 in 10.0 mi South 5.8 mph - N/A   Overcast
10:15 PM 46.4 °F 43.5 °F 42.8 °F 87% 29.79 in 10.0 mi SSW 5.8 mph - N/A   Overcast
10:35 PM 44.6 °F 41.4 °F 42.8 °F 93% 29.78 in 10.0 mi South 5.8 mph - N/A   Mostly Cloudy
10:55 PM 44.6 °F 40.7 °F 42.8 °F 93% 29.78 in 10.0 mi South 6.9 mph - N/A   Overcast
11:15 PM 44.6 °F 41.4 °F 41.0 °F 87% 29.77 in 8.0 mi SSW 5.8 mph - N/A   Mostly Cloudy
11:35 PM 46.4 °F 41.9 °F 42.8 °F 87% 29.76 in 8.0 mi SSW 9.2 mph - N/A   Overcast
11:55 PM 46.4 °F 41.5 °F 42.8 °F 87% 29.76 in 9.0 mi SSW 10.4 mph - N/A   Mostly Cloudy